Sherwood
DateTemperatureDew Point
09/04 - 12:00 PM78.8°60.3°
09/04 - 11:45 AM77.8°59.9°
09/04 - 11:30 AM77.7°60.0°
09/04 - 11:15 AM76.8°59.9°
09/04 - 11:00 AM75.8°59.8°
09/04 - 10:45 AM75.5°60.0°
09/04 - 10:30 AM75.1°59.8°
09/04 - 10:15 AM73.0°60.0°
09/04 - 10:00 AM72.0°59.6°
09/04 - 09:45 AM71.5°59.8°
09/04 - 09:30 AM70.3°59.7°
09/04 - 09:15 AM68.6°59.3°
09/04 - 09:00 AM67.2°58.9°
09/04 - 08:45 AM66.8°58.9°
09/04 - 08:30 AM65.7°58.2°
09/04 - 08:15 AM64.7°57.8°
09/04 - 08:00 AM63.5°57.0°
09/04 - 07:45 AM61.8°56.1°
09/04 - 07:30 AM59.3°55.3°
09/04 - 07:15 AM56.8°54.6°
09/04 - 07:00 AM55.5°53.5°
09/04 - 06:45 AM54.4°52.0°
09/04 - 06:30 AM54.0°51.2°
09/04 - 06:15 AM54.1°51.2°
09/04 - 06:00 AM54.0°50.8°
09/04 - 05:45 AM54.3°50.9°
09/04 - 05:30 AM54.6°50.9°
09/04 - 05:15 AM55.1°51.2°
09/04 - 05:00 AM55.7°51.4°
09/04 - 04:45 AM56.1°51.3°
09/04 - 04:30 AM56.3°51.5°
09/04 - 04:15 AM56.4°51.2°
09/04 - 04:00 AM56.4°51.1°
09/04 - 03:45 AM56.3°50.6°
09/04 - 03:30 AM56.2°50.3°
09/04 - 03:15 AM56.4°50.2°
09/04 - 03:00 AM56.6°50.0°
09/04 - 02:45 AM57.2°50.0°
09/04 - 02:30 AM57.9°49.5°
09/04 - 02:15 AM58.2°48.9°
09/04 - 02:00 AM58.2°48.7°
09/04 - 01:45 AM58.6°48.8°
09/04 - 01:30 AM59.2°49.2°
09/04 - 01:15 AM60.1°50.0°
09/04 - 01:00 AM60.9°48.8°
09/04 - 12:45 AM61.5°48.8°
09/04 - 12:30 AM61.9°48.7°
09/04 - 12:15 AM62.3°48.8°
09/04 - 12:00 AM62.1°49.1°
09/03 - 11:45 PM62.7°50.2°
09/03 - 11:30 PM63.5°50.6°
09/03 - 11:15 PM64.1°50.7°
09/03 - 11:00 PM64.2°50.7°
09/03 - 10:45 PM63.9°51.0°
09/03 - 10:30 PM63.7°51.5°
09/03 - 10:15 PM64.0°51.7°
09/03 - 10:00 PM64.6°51.3°
09/03 - 09:45 PM64.7°50.7°
09/03 - 09:30 PM64.9°51.6°
09/03 - 09:15 PM65.8°52.2°
09/03 - 09:00 PM66.2°51.9°
09/03 - 08:45 PM66.7°52.4°
09/03 - 08:30 PM67.1°53.2°
09/03 - 08:15 PM67.6°53.0°
09/03 - 08:00 PM68.7°54.5°
09/03 - 07:45 PM70.4°54.4°
09/03 - 07:30 PM72.2°54.6°
09/03 - 07:15 PM74.2°54.5°
09/03 - 07:00 PM76.0°54.7°
09/03 - 06:45 PM77.5°54.2°
09/03 - 06:30 PM79.0°54.3°
09/03 - 06:15 PM80.1°53.5°
09/03 - 06:00 PM81.2°53.9°
09/03 - 05:45 PM82.3°54.2°
09/03 - 05:30 PM83.4°54.0°
09/03 - 05:15 PM84.6°54.0°
09/03 - 05:00 PM86.1°53.9°
09/03 - 04:45 PM87.1°53.3°
09/03 - 04:30 PM88.2°54.5°
09/03 - 04:15 PM91.2°55.4°
09/03 - 04:00 PM88.5°54.3°
09/03 - 03:45 PM87.9°54.5°
09/03 - 03:30 PM87.5°53.8°
09/03 - 03:15 PM88.1°54.3°
09/03 - 03:00 PM87.0°54.1°
09/03 - 02:45 PM86.9°55.3°
09/03 - 02:30 PM86.6°55.7°
09/03 - 02:15 PM85.9°55.6°
09/03 - 02:00 PM85.1°55.1°
09/03 - 01:45 PM83.5°55.2°
09/03 - 01:30 PM83.3°55.8°
09/03 - 01:15 PM81.6°55.8°
09/03 - 01:00 PM81.5°55.6°
09/03 - 12:45 PM81.0°56.5°
09/03 - 12:30 PM80.8°57.0°
09/03 - 12:15 PM80.3°57.7°
09/03 - 12:00 PM77.8°57.5°
09/03 - 11:45 AM77.3°57.1°
09/03 - 11:30 AM76.2°57.1°
09/03 - 11:15 AM76.0°57.0°
09/03 - 11:00 AM74.7°57.0°
09/03 - 10:45 AM74.0°57.2°
09/03 - 10:30 AM72.7°57.0°
09/03 - 10:15 AM71.7°56.6°
09/03 - 10:00 AM70.5°56.4°
09/03 - 09:45 AM69.6°56.3°
09/03 - 09:30 AM68.5°56.0°
09/03 - 09:15 AM67.2°55.8°
09/03 - 09:00 AM66.2°55.6°
09/03 - 08:45 AM65.3°55.7°
09/03 - 08:30 AM64.5°55.6°
09/03 - 08:15 AM63.5°55.3°
09/03 - 08:00 AM62.1°55.1°
09/03 - 07:45 AM60.5°54.7°
09/03 - 07:30 AM58.3°54.4°
09/03 - 07:15 AM56.6°53.7°
09/03 - 07:00 AM55.5°52.7°
09/03 - 06:45 AM54.9°52.1°
09/03 - 06:30 AM54.3°51.6°
09/03 - 06:15 AM54.1°51.2°
09/03 - 06:00 AM54.5°51.5°
09/03 - 05:45 AM54.8°51.8°
09/03 - 05:30 AM54.9°52.0°
09/03 - 05:15 AM55.0°51.9°
09/03 - 05:00 AM55.2°51.8°
09/03 - 04:45 AM55.4°51.8°
09/03 - 04:30 AM55.8°52.0°
09/03 - 04:15 AM56.3°52.1°
09/03 - 04:00 AM56.8°52.4°
09/03 - 03:45 AM57.1°52.3°
09/03 - 03:30 AM57.4°52.6°
09/03 - 03:15 AM57.8°52.6°
09/03 - 03:00 AM58.2°52.5°
09/03 - 02:45 AM59.0°52.9°
09/03 - 02:30 AM59.6°53.0°
09/03 - 02:15 AM59.9°53.0°
09/03 - 02:00 AM59.6°53.0°
09/03 - 01:45 AM59.2°53.0°
09/03 - 01:30 AM59.4°52.9°
09/03 - 01:15 AM59.8°53.0°
09/03 - 01:00 AM60.2°53.0°
09/03 - 12:45 AM60.5°52.9°
09/03 - 12:30 AM60.5°52.8°
09/03 - 12:15 AM60.5°52.9°
09/03 - 12:00 AM60.5°52.5°
09/02 - 11:45 PM60.5°51.8°
09/02 - 11:30 PM60.6°51.7°
09/02 - 11:15 PM60.9°51.4°
09/02 - 11:00 PM61.1°50.8°
09/02 - 10:45 PM61.6°51.0°
09/02 - 10:30 PM61.8°51.4°
09/02 - 10:15 PM61.9°51.5°
09/02 - 10:00 PM61.8°51.5°
09/02 - 09:45 PM62.1°52.1°
09/02 - 09:30 PM62.8°52.7°
09/02 - 09:15 PM63.5°52.7°
09/02 - 09:00 PM64.1°52.8°
09/02 - 08:45 PM65.2°53.4°
09/02 - 08:30 PM66.6°53.8°
09/02 - 08:15 PM67.6°52.8°
09/02 - 08:00 PM68.1°52.7°
09/02 - 07:45 PM69.1°53.7°
09/02 - 07:30 PM70.6°53.9°
09/02 - 07:15 PM72.0°54.8°
09/02 - 07:00 PM73.9°55.2°
09/02 - 06:45 PM75.7°55.5°
09/02 - 06:30 PM77.1°55.4°
09/02 - 06:15 PM78.2°54.2°
09/02 - 06:00 PM79.3°53.4°
09/02 - 05:45 PM80.5°52.9°
09/02 - 05:30 PM81.5°53.1°
09/02 - 05:15 PM82.3°52.7°
09/02 - 05:00 PM83.5°53.3°
09/02 - 04:45 PM84.9°53.4°
09/02 - 04:30 PM85.9°53.7°
09/02 - 04:15 PM85.5°53.2°
09/02 - 04:00 PM86.0°52.7°
09/02 - 03:45 PM85.5°53.0°
09/02 - 03:30 PM85.5°53.4°
09/02 - 03:15 PM84.6°53.4°
09/02 - 03:00 PM84.8°53.6°
09/02 - 02:45 PM85.3°54.4°
09/02 - 02:30 PM84.1°53.5°
09/02 - 02:15 PM82.8°53.4°
09/02 - 02:00 PM81.8°53.2°
09/02 - 01:45 PM81.4°52.5°
09/02 - 01:30 PM81.3°53.3°
09/02 - 01:15 PM80.9°52.9°
09/02 - 01:00 PM80.5°53.7°
09/02 - 12:45 PM79.7°53.2°